This demonstration page uses our WeatherBlox Daily Observations layout. Learn more.

Left ArrowRight Arrow

39.01783, -85.05884

Hourly Observations for December 27, 2020

Temp ( °F °C ) Dew Point ( °F °C ) Humidity (%) Winds ( mph kmh ) Pressure ( in mb ) Visibility ( mi km ) Precip ( " mm )
12:52 am 00:52 Partly Cloudy 26 -3.3 19 -7.2 75 75 S 7 11 30.04 1017 10 16 N/A
1:52 am 01:52 Partly Cloudy 28 -2.2 20 -6.7 72 72 SSE 7 11 30.03 1017 10 16 N/A
2:52 am 02:52 Mostly Cloudy 26 -3.3 19 -7.2 75 75 SSE 7 11 30.04 1017 10 16 N/A
3:52 am 03:52 Mostly Cloudy 25 -3.9 19 -7.2 78 78 SSE 7 11 30.04 1017 10 16 N/A
4:52 am 04:52 Partly Cloudy 26 -3.3 20 -6.7 78 78 S 7 11 30.04 1017 10 16 N/A
5:52 am 05:52 Mostly Cloudy 25 -3.9 20 -6.7 81 81 SSE 9 15 30.04 1017 10 16 N/A
6:52 am 06:52 Mostly Cloudy 26 -3.3 20 -6.7 78 78 S 8 13 30.04 1017 10 16 N/A
7:52 am 07:52 Partly Cloudy 29 -1.7 23 -5 78 78 S 12 19 30.03 1017 10 16 N/A
8:52 am 08:52 Mostly Cloudy 33 0.6 25 -3.9 72 72 S 12 19 30.03 1017 10 16 N/A
9:52 am 09:52 Mostly Cloudy 38 3.3 27 -2.8 65 65 S 15 24 30.03 1017 10 16 N/A
10:52 am 10:52 Mostly Cloudy 42 5.6 29 -1.7 60 60 S 14 22 30.02 1017 10 16 N/A
11:52 am 11:52 Mostly Cloudy 47 8.3 30 -1.1 52 52 SSW 12 19 29.99 1016 10 16 N/A
12:52 pm 12:52 Mostly Cloudy 50 10 31 -0.6 48 48 S 16 26 29.96 1015 10 16 N/A
1:52 pm 13:52 Mostly Cloudy 51 10.6 32 undefined 48 48 S 13 20 29.93 1013 10 16 N/A
2:52 pm 14:52 Mostly Cloudy 52 11.1 31 -0.6 45 45 S 13 20 29.91 1013 10 16 N/A
3:52 pm 15:52 Cloudy 52 11.1 31 -0.6 45 45 S 15 24 29.89 1012 10 16 N/A
4:52 pm 16:52 Cloudy 50 10 32 undefined 50 50 SSE 16 26 29.88 1012 10 16 N/A
5:52 pm 17:52 Cloudy 47 8.3 32 undefined 56 56 SSE 13 20 29.88 1012 10 16 N/A
6:52 pm 18:52 Cloudy 49 9.4 32 undefined 52 52 S 17 28 29.86 1011 10 16 N/A
7:52 pm 19:52 Cloudy 50 10 30 -1.1 46 46 S 17 28 29.85 1011 10 16 N/A
8:52 pm 20:52 Cloudy 51 10.6 29 -1.7 43 43 S 20 31 29.84 1011 10 16 N/A
9:52 pm 21:52 Cloudy 51 10.6 29 -1.7 43 43 S 16 26 29.87 1012 10 16 N/A
10:52 pm 22:52 Cloudy 52 11.1 30 -1.1 43 43 SSW 16 26 29.89 1012 10 16 0.00 0.00
11:52 pm 23:52 Cloudy 52 11.1 30 -1.1 43 43 SSW 16 26 29.88 1012 10 16 N/A

Powered by AerisWeather